This demonstration page uses our WeatherBlox Daily Observations layout. Learn more.

Left ArrowRight Arrow

44.8408, -93.29828

Hourly Observations for March 26, 2016

Temp ( °F °C ) Dew Point ( °F °C ) Humidity (%) Winds ( mph kmh ) Pressure ( in mb ) Visibility ( mi km ) Precip ( " mm )
12:53 am 00:53 Cloudy 43 6.1 33 0.6 68 68 SSE 16 26 29.96 1015 10 16 0.00 0.00
1:53 am 01:53 Cloudy 42 5.6 33 0.6 71 71 SSE 7 11 29.96 1015 10 16 0.00 0.00
2:53 am 02:53 Cloudy 41 5 33 0.6 73 73 SE 7 11 29.96 1015 10 16 0.00 0.00
3:53 am 03:53 Cloudy 41 5 34 1.1 76 76 SE 9 15 29.96 1015 10 16 0.00 0.00
4:53 am 04:53 Mostly Cloudy 40 4.4 34 1.1 79 79 SSE 5 7 29.97 1015 10 16 0.00 0.00
5:53 am 05:53 Cloudy 40 4.4 34 1.1 79 79 ESE 5 7 29.98 1015 10 16 0.00 0.00
6:53 am 06:53 Cloudy 41 5 34 1.1 76 76 SE 3 6 30.00 1016 10 16 0.00 0.00
7:53 am 07:53 Cloudy 41 5 35 1.7 79 79 ESE 6 9 30.02 1017 10 16 0.00 0.00
8:53 am 08:53 Cloudy 43 6.1 35 1.7 74 74 SE 5 7 30.03 1017 10 16 0.00 0.00
9:53 am 09:53 Cloudy 45 7.2 37 2.8 74 74 SSE 5 7 30.03 1017 10 16 0.00 0.00
10:53 am 10:53 Mostly Cloudy 47 8.3 38 3.3 71 71 SE 5 7 30.05 1018 10 16 0.00 0.00
11:53 am 11:53 Partly Cloudy 49 9.4 38 3.3 66 66 Calm 30.04 1017 10 16 0.00 0.00
12:53 pm 12:53 Mostly Cloudy 50 10 37 2.8 61 61 E 9 15 30.02 1017 10 16 0.00 0.00
1:53 pm 13:53 Mostly Cloudy 50 10 38 3.3 63 63 E 8 13 30.02 1017 10 16 0.00 0.00
2:53 pm 14:53 Cloudy 50 10 38 3.3 63 63 ESE 7 11 30.01 1016 10 16 0.00 0.00
3:53 pm 15:53 Cloudy 49 9.4 39 3.9 69 69 E 7 11 30.01 1016 10 16 0.00 0.00
4:53 pm 16:53 Cloudy with Light Rain 48 8.9 40 4.4 74 74 ENE 5 7 30.02 1017 6 10 0.00 0.03
5:12 pm 17:12 Cloudy with Light Rain 47 8.3 41 5 80 80 ENE 8 13 30.00 1016 5 8 0.01 0.25
5:53 pm 17:53 Cloudy with Light Rain 46 7.8 42 5.6 86 86 E 10 17 30.03 1017 4 6 0.02 0.51
6:30 pm 18:30 Cloudy with Light Rain 46 8 43 6 87 87 ENE 7 11 30.00 1016 5 8 0.00 0.00
6:53 pm 18:53 Cloudy with Light Rain 46 7.8 41 5 83 83 NNE 3 6 30.02 1017 7 11 0.01 0.25
7:48 pm 19:48 Cloudy with Light Rain 45 7 43 6 93 93 SE 10 17 30.00 1016 5 8 0.00 0.00
7:53 pm 19:53 Cloudy with Light Rain 45 7.2 41 5 86 86 SE 10 17 30.02 1017 5 8 0.01 0.25
8:23 pm 20:23 Cloudy with Light Rain 44 6.7 41 5 89 89 SE 5 7 30.00 1016 5 8 0.01 0.25
8:53 pm 20:53 Cloudy with Light Rain 44 6.7 41 5 89 89 SE 5 7 30.02 1017 5 8 0.02 0.51
9:34 pm 21:34 Cloudy with Light Rain 45 7 41 5 87 87 ENE 5 7 30.03 1017 6 10 0.00 0.00
9:53 pm 21:53 Cloudy with Light Rain 44 6.7 41 5 89 89 VRB 3 6 30.04 1017 5 8 0.01 0.25
10:33 pm 22:33 Cloudy with Light Rain 44 6.7 40 4.4 85 85 E 6 9 30.03 1017 6 10 0.01 0.25
10:53 pm 22:53 Cloudy with Light Rain 44 6.7 41 5 89 89 ESE 6 9 30.04 1017 5 8 0.02 0.51
11:53 pm 23:53 Cloudy with Light Rain 43 6.1 40 4.4 89 89 SE 5 7 30.03 1017 7 11 0.02 0.51

Powered by AerisWeather